FENGYUN 1C DEB, 31323

Orbit data source: Space-Track

FENGYUN 1C DEB, 31323 is space debris in SSO originally from a launch on Mon, 10 May 1999 UTC launched from the Taiyaun Space Center, China (TSC). Fengyun 1C debris stems from the Chinese weather satellite Fengyun-1C, which was intentionally destroyed by a Chinese anti-satellite missile in 2007. This event dramatically increased the amount of space debris, with thousands of trackable fragments posing hazards to satellites and human spaceflight. The Fengyun 1C debris cloud has become a focal point in discussions about space sustainability and the need for international regulations to prevent the creation of new debris.

Loading next visibility...
Identifier
31323, 1999-025BQB
Orbit
SSO
Country
Flag of CNCN / PRC
Related business
Manufacturer
Unknown
Mission
Spacecraft
Bus & Motor
Unknown
Mass
Unknown
Launch date (UTC)
1999-05-10 (27 years ago)
Launch vehicle
Unknown
Launch site
Taiyaun Space Center, China (TSC)
Object type
Payload
Rocket body
Debris
Shape & HBR
Unknown shape, 0.1 m
Radar Cross Section
Small (<0.1 m²)

Expand to show TLE details & history
Last TLE update: 2 days ago

TLE from 2 days ago
0 FENGYUN 1C DEB
1 31323U 99025BQB 26069.92256990  .00003557  00000-0  14369-2 0  9997
2 31323  99.4121 120.2315 0032664 184.2378 175.8529 14.28297475652399
Epoch: 2026-03-10T22:08Z
TLE epoch observation values (Epoch: 2026-03-10T22:08:30.039Z)
Latitude
-0°
Longitude
-20.48787°
Altitude
823.712 km
Speed
7.429 km/s
True Right ascension
08h 00m 55s
True Declination
0° 00' 00"
Sunlit
Object was in full shadow at epoch
Visualization orbit readout
Latitude
Unknown
Longitude
Unknown
Altitude
Unknown
Speed
Unknown
Apparent Right ascension
Unknown
Apparent Declination
Unknown
Sunlit
N/A
Visualization observer readout
Local Sidereal Time
22:44:23
Azimuth
Unknown
Elevation
Unknown
Doppler factor
Unknown
Orbital elements
Apogee altitude
818.039 km
Perigee altitude
771.181 km
Semi-major axis
7,172.747 km
Eccentricity
0.00327
Inclination
99.4121°
RAAN
120.2315°
Arg. of periapsis
184.2378°
True anomaly
175.87986°
Mean anomaly
175.8529°
Eccentric anomaly
175.86639°
Mean motion
3.57285 °/min
Orbital period
100.76 mins
BSTAR
0.0014369
Loading maneuver chart data...
Computing Atmospheric mass density...

Documentation

Showing up to 5 results
|